TimeMST,TemperatureF,Dew PointF,Humidity,Sea Level PressureIn,VisibilityMPH,Wind Direction,Wind SpeedMPH,Gust SpeedMPH,PrecipitationIn,Events,Conditions,WindDirDegrees,DateUTC
12:53 AM,36.0,18.0,48,30.02,10.0,North,20.7,26.5,N/A,,Overcast,350,2013-11-25 07:53:00
1:53 AM,36.0,17.1,46,30.05,10.0,North,17.3,-,N/A,,Mostly Cloudy,360,2013-11-25 08:53:00
2:53 AM,36.0,18.0,48,30.08,10.0,North,11.5,-,N/A,,Mostly Cloudy,360,2013-11-25 09:53:00
3:53 AM,33.1,18.0,54,30.10,10.0,North,9.2,-,N/A,,Mostly Cloudy,10,2013-11-25 10:53:00
4:53 AM,30.0,17.1,59,30.15,10.0,ENE,8.1,-,N/A,,Scattered Clouds,60,2013-11-25 11:53:00
5:53 AM,30.9,18.0,59,30.18,10.0,NNE,11.5,-,N/A,,Mostly Cloudy,20,2013-11-25 12:53:00
6:53 AM,32.0,19.9,61,30.21,10.0,North,15.0,-,N/A,,Mostly Cloudy,10,2013-11-25 13:53:00
7:29 AM,32.0,21.2,64,30.18,10.0,North,12.7,-,N/A,,Mostly Cloudy,360,2013-11-25 14:29:00
7:53 AM,32.0,21.9,66,30.25,10.0,North,12.7,-,N/A,,Overcast,350,2013-11-25 14:53:00
8:53 AM,32.0,23.0,69,30.29,3.0,North,11.5,-,0.00,Snow,Light Snow,350,2013-11-25 15:53:00
9:06 AM,32.0,24.8,75,30.24,1.5,North,13.8,-,0.00,Snow,Light Snow,350,2013-11-25 16:06:00
9:53 AM,32.0,26.1,79,30.30,1.5,North,8.1,-,0.01,Snow,Light Snow,360,2013-11-25 16:53:00
10:08 AM,32.0,26.6,80,30.25,1.5,NW,6.9,-,0.00,,Overcast,320,2013-11-25 17:08:00
10:53 AM,33.1,27.0,78,30.30,1.5,NW,5.8,-,0.00,Snow,Light Snow,320,2013-11-25 17:53:00
11:03 AM,33.8,28.4,81,30.26,7.0,WNW,6.9,-,0.00,Snow,Light Snow,300,2013-11-25 18:03:00
11:53 AM,34.0,27.0,75,30.27,10.0,Variable,3.5,-,0.00,,Overcast,0,2013-11-25 18:53:00
12:53 PM,34.0,27.0,75,30.25,10.0,SSW,4.6,-,N/A,,Mostly Cloudy,200,2013-11-25 19:53:00
1:53 PM,36.0,28.0,73,30.22,10.0,South,6.9,-,N/A,,Mostly Cloudy,190,2013-11-25 20:53:00
2:53 PM,37.0,28.0,70,30.22,10.0,SW,9.2,-,N/A,,Mostly Cloudy,230,2013-11-25 21:53:00
3:53 PM,37.0,30.0,76,30.24,10.0,South,6.9,-,N/A,,Mostly Cloudy,180,2013-11-25 22:53:00
4:53 PM,35.1,28.0,76,30.26,10.0,SW,6.9,-,N/A,,Mostly Cloudy,220,2013-11-25 23:53:00
5:53 PM,35.1,26.1,70,30.27,10.0,SW,3.5,-,N/A,,Scattered Clouds,230,2013-11-26 00:53:00
6:53 PM,34.0,26.1,73,30.29,10.0,SW,3.5,-,N/A,,Mostly Cloudy,220,2013-11-26 01:53:00
7:53 PM,34.0,26.1,73,30.29,10.0,SW,5.8,-,N/A,,Mostly Cloudy,220,2013-11-26 02:53:00
8:53 PM,32.0,25.0,75,30.31,10.0,SW,3.5,-,N/A,,Mostly Cloudy,220,2013-11-26 03:53:00
9:53 PM,35.1,24.1,64,30.30,10.0,WSW,4.6,-,N/A,,Scattered Clouds,240,2013-11-26 04:53:00
10:53 PM,33.1,25.0,72,30.32,10.0,West,4.6,-,N/A,,Scattered Clouds,260,2013-11-26 05:53:00
11:53 PM,30.0,23.0,75,30.33,10.0,West,5.8,-,N/A,,Scattered Clouds,260,2013-11-26 06:53:00